Location: Cran-Gévrier
(45.9039°N, 6.1012°E)
Time: 13:03:33
(UTC+00:00)

Cosmos 841 Rocket - Visible Passes

Search period start: 25 September 2023 00:00
Search period end: 05 October 2023 00:00
Orbit: 746 x 770 km, 74.0° (Epoch: 25 September)

Date Brightness Start Highest point End Pass type
(mag) Time Alt. Az. Time Alt. Az. Time Alt. Az.
25 Sep 6.0 21:25:04 10° N 21:26:06 15° N 21:26:06 15° N visible
26 Sep 5.9 20:45:38 10° N 20:46:39 13° NNE 20:46:39 13° NNE visible
26 Sep 6.4 22:26:25 10° NNW 22:26:41 11° NNW 22:26:41 11° NNW visible
27 Sep 5.9 20:07:01 10° NNE 20:07:13 10° NNE 20:07:13 10° NNE visible
27 Sep 6.1 21:46:23 10° NNW 21:47:15 15° NNW 21:47:15 15° NNW visible
28 Sep 5.8 21:06:33 10° N 21:07:50 17° N 21:07:50 17° N visible
29 Sep 5.7 20:26:56 10° N 20:28:26 16° NNE 20:28:26 16° NNE visible
29 Sep 6.4 22:08:09 10° NNW 22:08:28 12° NNW 22:08:28 12° NNW visible
30 Sep 5.7 19:47:44 10° NNE 19:49:02 13° NNE 19:49:02 13° NNE visible
30 Sep 6.0 21:28:01 10° NNW 21:29:05 16° NNW 21:29:05 16° NNW visible
01 Oct 5.6 20:48:05 10° NNW 20:49:43 20° N 20:49:43 20° N visible
02 Oct 5.4 20:08:20 10° N 20:10:22 20° NNE 20:10:22 20° NNE visible
02 Oct 6.4 21:49:58 10° NW 21:50:25 12° NW 21:50:25 12° NW visible
03 Oct 5.4 19:28:52 10° N 19:31:02 17° NNE 19:31:02 17° NNE visible
03 Oct 5.9 21:09:42 10° NNW 21:11:05 19° NNW 21:11:05 19° NNW visible
04 Oct 5.5 18:50:08 10° NNE 18:51:44 11° NE 18:51:44 11° NE visible
04 Oct 5.3 20:29:39 10° NNW 20:31:47 25° N 20:31:47 25° N visible
